Flag for Central African Republic Weather past 2 weeks in Bimbo, Central African Republic

Now
86 °F

Partly sunny.


Feels Like: 93 °F
Forecast: 72 / 84 °F
Wind: 7 mph from South

Location: Bangui Airport

Current Time: Aug 29, 2014 at 2:11:53 PM

Latest Report: Aug 29, 2014 at 1:00 PM


Visibility: N/A

Pressure: 29.89 "Hg

Humidity: 66%

Dew point: 73 °F

Location of BimboLocation

Historic Weather in Bimbo — Graph

°F

Bimbo temperature yesterday

Maximum temperature yesterday: 90 °F (at 3:00 PM)
Minimum temperature yesterday: 70 °F (at 12:00 AM)
Average temperature yesterday: 77 °F

Past Weeks' High & Low Weather Summary

 TemperatureHumidityPressure
High93 °F (Aug 16, 2:00 PM)100% (Aug 14, 6:00 PM)30.04 "Hg (Aug 14, 6:00 PM)
Low68 °F (Aug 15, 2:00 AM)49% (Aug 16, 2:00 PM)29.74 "Hg (Aug 17, 4:00 PM)
Average77 °F86%29.91 "Hg
* Reported Aug 14 12:00 Noon — Aug 29 12:00 Noon, Bimbo, Weather by CustomWeather, © 2014

Note: Actual official high and low records may vary slightly from our data, if they occured in-between our weather recording intervals... More about our weather records

Advertising

Bimbo weather history for previous 24 hours

 ConditionsComfort  
Time TempWeatherWind HumidityBarometerVisibility
12:00 PM
Aug 29
86 °FPartly sunny.6 mph62%29.89 "HgN/A
11:00 AM84 °FPartly sunny.7 mph66%29.92 "HgN/A
10:00 AM82 °FPartly sunny.7 mph74%29.92 "HgN/A
9:00 AM79 °FPartly sunny.7 mph84%29.92 "HgN/A
8:00 AM77 °FScattered clouds.6 mph89%29.92 "HgN/A
7:00 AM73 °FPartly sunny.5 mph100%29.92 "HgN/A
6:00 AM73 °FScattered clouds.No wind100%29.89 "HgN/A
5:00 AM73 °FPassing clouds.No wind100%29.89 "HgN/A
4:00 AM73 °FPassing clouds.No wind100%29.86 "HgN/A
3:00 AM75 °FPassing clouds.2 mph94%29.86 "HgN/A
2:00 AM73 °FPassing clouds.3 mph94%29.86 "HgN/A
1:00 AM75 °FThunderstorms. Passing clouds.2 mph94%29.86 "HgN/A
12:00 AM75 °FThunderstorms. Passing clouds.2 mph94%29.86 "Hg5 mi
11:00 PM
Aug 28
75 °FClear.No wind89%29.89 "Hg4 mi
8:00 PM77 °FThunderstorms. Passing clouds.2 mph89%29.83 "Hg4 mi
7:00 PM79 °FThunderstorms. Passing clouds.2 mph89%29.80 "Hg4 mi
6:00 PM81 °FPassing clouds.5 mph84%29.77 "HgN/A
5:00 PM86 °FScattered clouds.5 mph62%29.77 "HgN/A
4:00 PM90 °FScattered clouds.1 mph55%29.77 "HgN/A
3:00 PM90 °FScattered clouds.1 mph55%29.80 "HgN/A
2:00 PM86 °FBroken clouds.2 mph66%29.83 "HgN/A
Weather by CustomWeather, © 2014

See weather overviewHow to use our weather pages